Regional Weather Roundup
Issued by NWS Green Bay, WI

Home | Current Version | Previous Version | Text Only | Print | Product List | Glossary On
Versions: 1 2 3 4 5 6 7 8 9 10 11 12 13 14 15 16 17 18 19 20 21 22 23 24 25 26 27 28 29 30 31 32 33 34 35 36 37 38 39 40 41 42 43 44 45 46 47 48 49 50
000
ASUS43 KGRB 101011
RWRGRB

NORTH-CENTRAL AND NORTHEAST WISCONSIN REGIONAL WEATHER ROUNDUP
NATIONAL WEATHER SERVICE GREEN BAY WI
400 AM CST SAT DEC 10 2016

WIZ005-009-010>012-018-019-101100-
NORTH CENTRAL WISCONSIN

CITY           SKY/WX    TMP DP  RH WIND       PRES   REMARKS
IRONWOOD       LGT SNOW   7   3  84 W10       30.39S FOG     WCI  -8
MANITOWISH WTR CLOUDY     5   0  80 W6        30.36S WCI  -6
ARBOR VITAE    CLOUDY     9   0  65 NW8       30.36R WCI  -3
EAGLE RIVER    CLOUDY     7  -3  64 W6        30.34S WCI  -3
LAND O LAKES   CLOUDY     7   0  73 W7        30.36R WCI  -4
RHINELANDER    CLOUDY     9   2  73 NW8       30.36R WCI  -3
PHILLIPS       CLOUDY     7   2  78 CALM      30.38S
ANTIGO         LGT SNOW  11   6  80 NW5       30.36R WCI   3
TOMAHAWK       CLOUDY     9   4  79 NW3       30.38S
MERRILL        LGT SNOW  11   7  83 N3        30.39S
$$

WIZ013-073-101100-
NORTHEAST WISCONSIN

CITY           SKY/WX    TMP DP  RH WIND       PRES   REMARKS
IRON MOUNTAIN  CLEAR      9  -3  58 W10       30.34F WCI  -5
MARINETTE      CLOUDY    17   6  62 NW8       30.41S WCI   7
OCONTO         CLOUDY    18   8  66 W13       30.42R WCI   4
$$

WIZ017-030-035>037-045-101100-
CENTRAL WISCONSIN

CITY           SKY/WX    TMP DP  RH WIND       PRES   REMARKS
MEDFORD        CLOUDY    10   2  71 W6        30.37S WCI   0
WAUSAU         CLOUDY    12   2  64 W12       30.39S WCI  -2
MOSINEE        CLOUDY    12   5  73 NW14      30.41R WCI  -3
MARSHFIELD     CLOUDY    12   4  70 NW9       30.40S WCI   0
WISC RAPIDS    PTCLDY    12   8  84 W6        30.44S WCI   3
STEVENS POINT  FLURRIES  12   8  83 W3        30.42S
WAUPACA        CLOUDY    17  11  75 SW6       30.44S WCI   9
SHAWANO        FLURRIES  19  11  72 W5        30.42S
CLINTONVILLE   CLOUDY    18   9  68 W10       30.42S WCI   6
WAUTOMA        FLURRIES  14   9  80 W8        30.45F WCI   3
$$

WIZ038-039-048-051-101100-
FOX VALLEY

CITY           SKY/WX    TMP DP  RH WIND       PRES   REMARKS
NWS GREEN BAY  CLOUDY    20  10  65 W9        30.42F WCI   9
APPLETON       CLOUDY    18  10  73 W8        30.41S WCI   7
OSHKOSH        PTCLDY    15   8  73 W5        30.44S WCI   8
FOND DU LAC    MOCLDY    15   6  67 W3        30.45S
$$

WIZ022-050-052-101100-
EAST CENTRAL WISCONSIN

CITY           SKY/WX    TMP DP  RH WIND       PRES   REMARKS
EPHRAIM        CLOUDY    19   7  60 NW8       30.37S WCI   8
WASHINGTON ISL CLOUDY    17   5  59 W12G20    30.38S WCI   4
STURGEON BAY   FLURRIES  19   7  59 W10       30.40S WCI   7
MANITOWOC      CLOUDY    19   8  62 W13       30.43F WCI   6
SHEBOYGAN      PTCLDY    15   9  76 W8        30.44S WCI   4
$$

LMZ563-521-522-541>543-101100-
LAKESHORE

STATION/POSITION TIME  TEMP    WIND        PRES    VSBY  WAVE
                       AIR SEA DIR/SP/G                  HT/PER
                 (UTC) (F)     (DEG/KT/KT) (MB)    (MI)  (FT/S)
SHEBOYGAN LKSHOR 1000   17     280/  8/ 10 1032.0S
KEWAUNEE LKSHORE 0948   19     280/  9/ 12 1029.4F
ALGOMA MARINA    0951          260/ 11/ 16   N/A
NORTHPORT PIER   0954   19     270/ 10/ 20 1028.8S
SISTER BAY LKSHO 0950   20     310/ 16/ 20   N/A
CHAMBERS ISLAND  0940   19     290/  9/ 17 1028.8R
MENOMINEE LKSHOR 0948   18     290/ 10/ 13 1028.6S
$$



USA.gov is the U.S. government's official web portal to all federal, state and local government web resources and services.